SL-19 DEB, 23485

Orbit data source: Space-Track

SL-19 DEB, 23485 is space debris in LEO originally from a launch on Mon, 26 Dec 1994 UTC launched from the Tyuratam Missile And Space Complex (TTMTR). Debris objects in space refer to the collection of defunct objects orbiting the Earth. Examples of debris include non-operational satellites, rocket bodies, and fragments generated from explosions, collisions, or faulty payload assembly.

Loading next visibility...
Identifier
23485, 1994-085H
Orbit
LEO
Country
Flag of CISCIS
Related business
Manufacturer
Unknown
Mission
Spacecraft
Bus & Motor
Unknown
Mass
Unknown
Launch date (UTC)
1994-12-26 (31 years ago)
Launch vehicle
Unknown
Launch site
Tyuratam Missile And Space Complex (TTMTR)
Object type
Payload
Rocket body
Debris
Shape & HBR
Unknown shape, 0.1 m
Radar Cross Section
Medium (>0.1 m² and <1 m²)

Expand to show TLE details & history
Last TLE update: 2 days ago

TLE from 2 days ago
0 SL-19 DEB
1 23485U 94085H   26171.39670227  .00000065  00000-0  30113-2 0  9992
2 23485  64.6454 169.7064 0140540 211.5892 147.6537 11.29917807297655
Epoch: 2026-06-20T09:31Z
TLE epoch observation values (Epoch: 2026-06-20T09:31:15.076Z)
Latitude
-0.00004°
Longitude
118.28164°
Altitude
2,112.478 km
Speed
6.812 km/s
True Right ascension
11h 18m 49s
True Declination
0° 00' 00"
Sunlit
Object was in daylight at epoch
Visualization orbit readout
Latitude
Unknown
Longitude
Unknown
Altitude
Unknown
Speed
Unknown
Apparent Right ascension
Unknown
Apparent Declination
Unknown
Sunlit
N/A
Visualization observer readout
Local Sidereal Time
23:27:20
Azimuth
Unknown
Elevation
Unknown
Doppler factor
Unknown
Orbital elements
Apogee altitude
2,127.447 km
Perigee altitude
1,891.685 km
Semi-major axis
8,387.703 km
Eccentricity
0.01405
Inclination
64.6454°
RAAN
169.7064°
Arg. of periapsis
211.5892°
True anomaly
148.50272°
Mean anomaly
147.6537°
Eccentric anomaly
148.07946°
Mean motion
2.82539 °/min
Orbital period
127.42 mins
BSTAR
0.0030113
Loading maneuver chart data...
Computing Atmospheric mass density...
Loading historical data...
Loading historical data...
Loading historical data...
Loading historical data...
Loading historical data...
Loading historical data...
Loading historical data...

Documentation

Showing up to 5 results
|